Regional Weather Roundup
Issued by NWS

Home | Current Version | Previous Version | Text Only | Print | Product List | Glossary On
Versions: 1 2 3 4 5 6 7 8 9 10 11 12 13 14 15 16 17 18 19 20 21 22 23 24 25 26 27 28 29 30 31 32 33 34 35 36 37 38 39 40 41 42 43 44 45 46 47 48 49 50
000
ASUS44 KMEG 160710
RWRTN
TENNESSEE HOURLY STATE WEATHER ROUNDUP
NATIONAL WEATHER SERVICE MEMPHIS TN
200 AM CDT TUE SEP 16 2014

TNZ002-004-019-021-049-052-054-088>092-160800-
WEST TENNESSEE

CITY           SKY/WX    TMP DP  RH WIND       PRES   REMARKS
MEMPHIS INTL   PTCLDY    71  65  81 CALM      30.11R
NWS MEMPHIS      N/A     67 N/A N/A MISG        N/A
JACKSON        PTCLDY    65  63  93 CALM      30.11S FOG
DYERSBURG      CLEAR     63  54  72 CALM      30.12R
UNION CITY     PTCLDY    63  61  94 CALM      30.10S
PARIS          CLOUDY    63  61  94 SW3       30.11F
HUNTINGDON     PTCLDY    61  60  96 CALM      30.11S
LEXINGTON      CLEAR     64  63  94 CALM      30.10F
SAVANNAH       CLEAR     66  66 100 CALM      30.11F
$$

TNZ008-025-027-028-033-062-065-066-160800-
NORTH MIDDLE TENNESSEE

CITY           SKY/WX    TMP DP  RH WIND       PRES   REMARKS
NASHVILLE      CLOUDY    66  64  93 CALM      30.11S
DICKSON        PTCLDY    64  63  94 W3        30.12
PORTLAND       CLOUDY    66  61  82 CALM      30.11
CLARKSVILLE    CLOUDY    66  63  90 SW5       30.10S
LEBANON        CLOUDY    66  64  93 CALM      30.10S
SMYRNA         CLOUDY    64  64 100 CALM      30.12F
MURFREESBORO   PTCLDY    65  63  93 S3        30.11F
COOKEVILLE     CLOUDY    66  64  94 CALM      30.12S
LIVINGSTON     MOCLDY    65  61  87 SW8       30.12
GALLATIN       CLOUDY    67  66  96 CALM      30.12S
CROSSVILLE     CLOUDY    68  65  90 CALM      30.15F
$$

TNZ061-075-076-078-094-096-097-160800-
SOUTH MIDDLE TENNESSEE

CITY           SKY/WX    TMP DP  RH WIND       PRES   REMARKS
LEWISBURG      CLEAR     65  64  96 CALM      30.12S
FAYETTEVILLE   CLEAR     66  64  94 CALM      30.12S
TULLAHOMA      CLEAR     66  64  94 CALM      30.14S
WINCHESTER     CLEAR     66  66 100 CALM      30.12S
MCMINNVILLE    PTCLDY    64  64 100 CALM      30.13S
COLUMBIA       CLEAR     64  64 100 CALM      30.11S
SHELBYVILLE    CLEAR     66  66 100 CALM      30.13S
$$

TNZ017-018-042-046-047-160800-
NORTHEAST TENNESSEE

CITY           SKY/WX    TMP DP  RH WIND       PRES   REMARKS
TRI CITIES     PTCLDY    64  61  90 CALM      30.11F FOG
ELIZABETHTON   MOSUNNY   59  57  94 CALM      30.13F FOG
$$

TNZ012-013-036-069-073-074-160800-
CENTRAL EAST TENNESSEE

CITY           SKY/WX    TMP DP  RH WIND       PRES   REMARKS
KNOXVILLE      CLOUDY    68  68 100 SW6       30.10F FOG
OAK RIDGE      CLOUDY    68  66  93 CALM      30.12F
GATLINBURG     SUNNY     64  64 100 CALM      30.10F
MORRISTOWN     PTSUNNY   64  64 100 CALM      30.12F
$$

TNZ083-085-099-160800-
SOUTHEAST TENNESSEE

CITY           SKY/WX    TMP DP  RH WIND       PRES   REMARKS
CHATTANOOGA    FOG       71  69  93 CALM      30.10F VSB 1
$$

SKY/WX REPORTED AS FAIR MEANS FEW OR NO CLOUDS BELOW
12 THOUSAND FEET.



USA.gov is the U.S. government's official web portal to all federal, state and local government web resources and services.